Weather History for KVAF - March, 2014

Change the Weather History Date:

Sunday, March 30, 2014

  Actual Average Record
Temperature  
Mean Temperature 68 °F -  
Max Temperature 69 °F - - ()
Min Temperature 66 °F - - ()
Cooling Degree Days 2    
Growing Degree Days 18 (Base 50)    
Moisture  
Dew Point 53 °F    
Average Humidity 59    
Maximum Humidity 73    
Minimum Humidity 43    
Precipitation  
Precipitation 0.00 in - - ()
Sea Level Pressure  
Sea Level Pressure 30.16 in    
Wind  
Wind Speed 18 mph (ESE)    
Max Wind Speed 25 mph    
Max Gust Speed 26 mph    
Visibility 10 miles    
Events      
T = Trace of Precipitation, MM = Missing Value Source: NWS Daily Summary

Daily Weather History Graph

Daily Weather History Graph

Search for Another Location

Airport or City:

Trip Planner

Search our weather history database for the weather conditions in past years. The results will help you decide how hot, cold, wet, or windy it might be!

Date:

Astronomy

Mar. 30, 2014 Rise Set
Actual Time 7:11 AM CDT 7:34 PM CDT
Civil Twilight 6:47 AM CDT 7:58 PM CDT
Nautical Twilight 6:20 AM CDT 8:25 PM CDT
Astronomical Twilight 5:52 AM CDT 8:53 PM CDT
Moon 6:57 AM CDT (3/30) 7:45 PM CDT (3/30)
Length of Visible Light 13h 10m
Length of Day
12h 23m
Waning Crescent, 0% of the Moon is Illuminated
Mar 30
Waning Crescent
Mar 30
New
Apr 7
First Quarter
Apr 15
Full
Apr 22
Last Quarter

Hourly Weather History & Observations

Time (CDT) Temp. Dew Point Humidity Pressure Visibility Wind Dir Wind Speed Gust Speed Precip Events Conditions
12:15 AM 68.0 °F 59.0 °F 73% 30.18 in 10.0 mi ENE 18.4 mph - N/A   Clear
12:35 AM 68.0 °F 59.0 °F 73% 30.17 in 10.0 mi ENE 20.7 mph - N/A   Partly Cloudy
12:55 AM 68.0 °F 57.2 °F 68% 30.17 in 10.0 mi ENE 19.6 mph - N/A   Clear
1:15 AM 68.0 °F 57.2 °F 68% 30.17 in 10.0 mi East 19.6 mph - N/A   Clear
1:35 AM 68.0 °F 57.2 °F 68% 30.16 in 10.0 mi East 19.6 mph - N/A   Clear
1:55 AM 68.0 °F 57.2 °F 68% 30.17 in 10.0 mi East 18.4 mph - N/A   Clear
2:15 AM 68.0 °F 57.2 °F 68% 30.17 in 10.0 mi ENE 19.6 mph - N/A   Clear
2:35 AM 68.0 °F 57.2 °F 68% 30.17 in 10.0 mi East 18.4 mph - N/A   Clear
2:55 AM 68.0 °F 55.4 °F 64% 30.15 in 10.0 mi East 19.6 mph - N/A   Clear
3:15 AM 68.0 °F 57.2 °F 68% 30.15 in 10.0 mi East 16.1 mph - N/A   Clear
3:35 AM 68.0 °F 57.2 °F 68% 30.15 in 10.0 mi East 16.1 mph - N/A   Clear
3:55 AM 68.0 °F 55.4 °F 64% 30.15 in 10.0 mi East 17.3 mph - N/A   Clear
4:15 AM 68.0 °F 55.4 °F 64% 30.15 in 10.0 mi East 17.3 mph - N/A   Clear
4:35 AM 68.0 °F 55.4 °F 64% 30.15 in 10.0 mi East 18.4 mph - N/A   Clear
4:55 AM 68.0 °F 53.6 °F 60% 30.16 in 10.0 mi East 15.0 mph - N/A   Clear
5:15 AM 69.8 °F 51.8 °F 53% 30.15 in - East 18.4 mph - N/A   Clear
5:35 AM 69.8 °F 50.0 °F 49% 30.16 in 10.0 mi East 17.3 mph - N/A   Clear
5:55 AM 69.8 °F 48.2 °F 46% 30.17 in 10.0 mi East 17.3 mph - N/A   Clear
6:15 AM 69.8 °F 46.4 °F 43% 30.18 in 10.0 mi East 16.1 mph - N/A   Clear
6:35 AM 68.0 °F 48.2 °F 49% 30.19 in 10.0 mi East 18.4 mph - N/A   Clear
6:55 AM 68.0 °F 48.2 °F 49% 30.19 in 10.0 mi East 19.6 mph - N/A   Clear
7:15 AM 68.0 °F 48.2 °F 49% 30.20 in 10.0 mi East 17.3 mph - N/A   Clear
7:35 AM 68.0 °F 48.2 °F 49% 30.20 in 10.0 mi East 17.3 mph - N/A   Clear
7:55 AM 68.0 °F 48.2 °F 49% 30.22 in 10.0 mi East 17.3 mph - N/A   Clear
8:15 AM 68.0 °F 48.2 °F 49% 30.23 in 10.0 mi East 17.3 mph - N/A   Clear
8:35 AM 68.0 °F 46.4 °F 46% 30.23 in 10.0 mi East 18.4 mph - N/A   Clear
8:55 AM 68.0 °F 46.4 °F 46% 30.23 in 10.0 mi East 19.6 mph - N/A   Clear
9:15 AM 68.0 °F 48.2 °F 49% 30.23 in 10.0 mi East 20.7 mph - N/A   Clear
9:35 AM 68.0 °F 46.4 °F 46% 30.22 in 10.0 mi East 23.0 mph - N/A   Clear
9:55 AM 68.0 °F 48.2 °F 49% 30.23 in 10.0 mi East 25.3 mph - N/A   Clear
10:15 AM 68.0 °F 46.4 °F 46% 30.24 in 10.0 mi East 19.6 mph 26.5 mph N/A   Clear
10:35 AM 68.0 °F 46.4 °F 46% 30.23 in 10.0 mi East 21.9 mph - N/A   Clear
10:55 AM 68.0 °F 46.4 °F 46% 30.24 in 10.0 mi East 21.9 mph - N/A   Clear
11:15 AM 68.0 °F 46.4 °F 46% 30.24 in 10.0 mi East 20.7 mph - N/A   Clear
11:35 AM 68.0 °F 50.0 °F 52% 30.24 in 10.0 mi East 19.6 mph - N/A   Clear
11:55 AM 68.0 °F 50.0 °F 52% 30.23 in 10.0 mi East 20.7 mph - N/A   Clear
12:15 PM 68.0 °F 50.0 °F 52% 30.22 in 10.0 mi East 21.9 mph - N/A   Clear
12:35 PM 68.0 °F 50.0 °F 52% 30.22 in 10.0 mi East 19.6 mph - N/A   Clear
12:55 PM 68.0 °F 50.0 °F 52% 30.21 in 10.0 mi ESE 19.6 mph - N/A   Clear
1:15 PM 68.0 °F 50.0 °F 52% 30.21 in 10.0 mi ESE 17.3 mph - N/A   Clear
1:35 PM 68.0 °F 51.8 °F 56% 30.20 in 10.0 mi ESE 18.4 mph - N/A   Clear
1:55 PM 66.2 °F 51.8 °F 60% 30.19 in 10.0 mi ESE 19.6 mph - N/A   Clear
2:15 PM 68.0 °F 53.6 °F 60% 30.19 in 10.0 mi ESE 18.4 mph - N/A   Clear
2:35 PM 66.2 °F 51.8 °F 60% 30.18 in 10.0 mi ESE 18.4 mph - N/A   Clear
2:55 PM 66.2 °F 53.6 °F 64% 30.16 in 10.0 mi ESE 20.7 mph - N/A   Clear
3:15 PM 66.2 °F 51.8 °F 60% 30.15 in 10.0 mi ESE 19.6 mph - N/A   Clear
3:35 PM 66.2 °F 53.6 °F 64% 30.15 in 10.0 mi ESE 21.9 mph - N/A   Clear
3:55 PM 66.2 °F 53.6 °F 64% 30.15 in 10.0 mi ESE 17.3 mph - N/A   Clear
4:15 PM 66.2 °F 53.6 °F 64% 30.14 in 10.0 mi ESE 17.3 mph - N/A   Clear
4:35 PM 66.2 °F 53.6 °F 64% 30.12 in 10.0 mi ESE 20.7 mph - N/A   Clear
4:55 PM 66.2 °F 53.6 °F 64% 30.11 in 10.0 mi ESE 19.6 mph - N/A   Clear
5:15 PM 66.2 °F 53.6 °F 64% 30.11 in 10.0 mi ESE 16.1 mph 21.9 mph N/A   Clear
5:35 PM 66.2 °F 53.6 °F 64% 30.11 in 10.0 mi ESE 16.1 mph - N/A   Clear
5:55 PM 66.2 °F 53.6 °F 64% 30.11 in 10.0 mi ESE 15.0 mph - N/A   Clear
6:15 PM 66.2 °F 53.6 °F 64% 30.11 in 10.0 mi ESE 15.0 mph - N/A   Clear
6:35 PM 66.2 °F 53.6 °F 64% 30.11 in 10.0 mi ESE 16.1 mph - N/A   Clear
6:55 PM 66.2 °F 53.6 °F 64% 30.11 in - SE 13.8 mph - N/A   Clear
7:15 PM 66.2 °F 53.6 °F 64% 30.11 in 10.0 mi SE 15.0 mph - N/A   Clear
7:35 PM 66.2 °F 55.4 °F 68% 30.11 in 10.0 mi SE 16.1 mph - N/A   Partly Cloudy
7:55 PM 66.2 °F 53.6 °F 64% 30.11 in 10.0 mi SE 17.3 mph - N/A   Mostly Cloudy
8:15 PM 66.2 °F 55.4 °F 68% 30.11 in 10.0 mi SE 15.0 mph - N/A   Overcast
8:35 PM 66.2 °F 55.4 °F 68% 30.11 in 10.0 mi SE 16.1 mph - N/A   Overcast
8:55 PM 66.2 °F 55.4 °F 68% 30.11 in 10.0 mi SE 15.0 mph 21.9 mph N/A   Mostly Cloudy
9:15 PM 66.2 °F 55.4 °F 68% 30.11 in 10.0 mi SE 17.3 mph - N/A   Overcast
9:35 PM 68.0 °F 55.4 °F 64% 30.11 in 10.0 mi SE 15.0 mph - N/A   Mostly Cloudy
9:55 PM 68.0 °F 55.4 °F 64% 30.12 in 10.0 mi SE 15.0 mph - N/A   Mostly Cloudy
10:15 PM 68.0 °F 55.4 °F 64% 30.11 in 10.0 mi SE 17.3 mph - N/A   Mostly Cloudy
10:35 PM 68.0 °F 55.4 °F 64% 30.11 in 10.0 mi SE 16.1 mph - N/A   Mostly Cloudy
10:55 PM 68.0 °F 55.4 °F 64% 30.11 in 10.0 mi SE 16.1 mph - N/A   Scattered Clouds
11:15 PM 68.0 °F 57.2 °F 68% 30.10 in 10.0 mi SE 17.3 mph - N/A   Scattered Clouds
11:35 PM 68.0 °F 57.2 °F 68% 30.10 in 10.0 mi SE 17.3 mph - N/A   Scattered Clouds
11:55 PM 68.0 °F 57.2 °F 68% 30.10 in 10.0 mi SE 17.3 mph - N/A   Scattered Clouds